Jamaica, NY

6:11 PM EST on December 07, 2016 (GMT -0500)
Kennedy International

Weather History for KJFK - January, 2014

Change the Weather History Date:

Thursday, January 2, 2014

  Actual Average Record
Temperature  
Mean Temperature 26 °F 34 °F  
Max Temperature 33 °F 40 °F 57 °F (1979)
Min Temperature 19 °F 27 °F 6 °F (1968)
Degree Days  
Heating Degree Days 39 31  
Month to date heating degree days 75 62  
Since 1 July heating degree days 1717 1731  
Cooling Degree Days 0 0  
Month to date cooling degree days 0 0  
Year to date cooling degree days 0 0  
Moisture  
Dew Point 21 °F    
Average Humidity 71    
Maximum Humidity 91    
Minimum Humidity 51    
Precipitation  
Precipitation 0.13 in 0.11 in 1.58 in (1987)
Month to date precipitation 0.13 0.21  
Year to date precipitation 0.13 0.21  
Snow  
Snow 2.40 in 0.20 in 2.40 in (2014)
Month to date snowfall 2.4 0.4  
Since 1 July snowfall 9.3 5.3  
Snow Depth 0.00 in    
Sea Level Pressure  
Sea Level Pressure 29.94 in    
Wind  
Wind Speed 18 mph (NNE)    
Max Wind Speed 29 mph    
Max Gust Speed 36 mph    
Visibility 7 miles    
Events Snow    
T = Trace of Precipitation, MM = Missing Value Source: NWS Daily Summary

Daily Weather History Graph

Daily Weather History Graph

Search for Another Location

Airport or City:

Trip Planner

Search our weather history database for the weather conditions in past years. The results will help you decide how hot, cold, wet, or windy it might be!

Date:

Astronomy

Jan. 02, 2014 Rise Set
Actual Time 7:18 AM EST 4:39 PM EST
Civil Twilight 6:48 AM EST 5:10 PM EST
Nautical Twilight 6:13 AM EST 5:44 PM EST
Astronomical Twilight 5:40 AM EST 6:17 PM EST
Moon 7:57 AM EST (1/2) 6:33 PM EST (1/2)
Length of Visible Light 10h 22m
Length of Day
9h 20m
New Moon, 2% of the Moon is Illuminated
Jan 2
New Moon
Jan 7
First Quarter
Jan 15
Full
Jan 24
Last Quarter
Jan 30
New

Hourly Weather History & Observations

Time (EST) Temp. Windchill Dew Point Humidity Pressure Visibility Wind Dir Wind Speed Gust Speed Precip Events Conditions
12:51 AM 33.1 °F 23.9 °F 19.0 °F 56% 30.24 in 10.0 mi ENE 12.7 mph - N/A   Overcast
1:51 AM 33.1 °F 23.9 °F 19.0 °F 56% 30.22 in 10.0 mi ENE 12.7 mph - N/A   Overcast
2:51 AM 33.1 °F 23.4 °F 19.9 °F 59% 30.19 in 10.0 mi NE 13.8 mph - N/A   Overcast
3:51 AM 32.0 °F 21.6 °F 21.9 °F 66% 30.17 in 9.0 mi NE 15.0 mph - 0.00 in Snow Light Snow
4:51 AM 30.9 °F 20.2 °F 25.0 °F 79% 30.14 in 6.0 mi NNE 15.0 mph - 0.00 in Snow Light Snow
5:51 AM 30.0 °F 17.5 °F 25.0 °F 82% 30.13 in 10.0 mi NNE 19.6 mph - 0.00 in Snow Light Snow
6:51 AM 30.0 °F 19.1 °F 24.1 °F 79% 30.12 in 10.0 mi NE 15.0 mph - 0.00 in Snow Light Snow
7:17 AM 30.2 °F 17.8 °F 24.8 °F 80% 30.10 in 10.0 mi NNE 19.6 mph 26.5 mph 0.00 in Snow Light Snow
7:51 AM 28.9 °F 16.9 °F 24.1 °F 82% 30.09 in 10.0 mi NNE 17.3 mph - 0.00 in Snow Light Snow
8:51 AM 28.9 °F 15.8 °F 23.0 °F 78% 30.09 in 10.0 mi NNE 20.7 mph 27.6 mph 0.00 in   Overcast
9:51 AM 28.9 °F 15.8 °F 24.1 °F 82% 30.07 in 10.0 mi NNE 20.7 mph 26.5 mph N/A   Overcast
10:51 AM 28.9 °F 15.8 °F 23.0 °F 78% 30.03 in 10.0 mi NNE 20.7 mph 28.8 mph N/A   Overcast
11:37 AM 28.4 °F 15.1 °F 23.0 °F 80% 29.99 in 8.0 mi NNE 20.7 mph 26.5 mph 0.00 in   Light Freezing Drizzle
11:51 AM 28.0 °F 15.3 °F 23.0 °F 81% 29.97 in 8.0 mi NNE 18.4 mph 26.5 mph 0.00 in   Light Freezing Drizzle
12:51 PM 28.0 °F 15.3 °F 23.0 °F 81% 29.94 in 8.0 mi NNE 18.4 mph - 0.00 in   Light Freezing Drizzle
1:05 PM 28.4 °F 14.7 °F 23.0 °F 80% 29.92 in 8.0 mi NNE 21.9 mph - 0.00 in   Light Freezing Drizzle
1:51 PM 27.0 °F 13.5 °F 21.9 °F 81% 29.90 in 10.0 mi NNE 19.6 mph - 0.00 in   Light Freezing Drizzle
2:45 PM 26.6 °F 13.1 °F 21.2 °F 80% 29.87 in 10.0 mi NE 19.6 mph 25.3 mph 0.00 in   Overcast
2:51 PM 27.0 °F 14.3 °F 21.9 °F 81% 29.88 in 10.0 mi NNE 17.3 mph 26.5 mph 0.00 in   Overcast
3:10 PM 26.6 °F 12.7 °F 21.2 °F 80% 29.85 in 10.0 mi NNE 20.7 mph 27.6 mph N/A   Overcast
3:51 PM 27.0 °F 13.9 °F 21.9 °F 81% 29.86 in 10.0 mi NNE 18.4 mph 27.6 mph N/A   Overcast
4:51 PM 27.0 °F 13.5 °F 21.9 °F 81% 29.82 in 10.0 mi NNE 19.6 mph - N/A   Overcast
5:51 PM 26.1 °F 12.7 °F 21.0 °F 81% 29.81 in 10.0 mi NE 18.4 mph 29.9 mph 0.00 in Snow Light Snow
6:41 PM 24.8 °F 11.1 °F 21.2 °F 86% 29.78 in 1.5 mi NE 18.4 mph 25.3 mph 0.00 in Snow Light Snow
6:51 PM 25.0 °F 10.9 °F 21.0 °F 85% 29.78 in 1.5 mi NNE 19.6 mph 26.5 mph 0.00 in Snow Light Snow
7:34 PM 24.8 °F 11.1 °F 19.4 °F 80% 29.75 in 1.5 mi NNE 18.4 mph - 0.01 in Snow Light Snow
7:51 PM 24.1 °F 9.4 °F 19.9 °F 84% 29.75 in 1.5 mi NNE 20.7 mph 27.6 mph 0.01 in Snow Light Snow
8:03 PM 24.8 °F 10.7 °F 19.4 °F 80% 29.73 in 1.5 mi NNE 19.6 mph - 0.01 in Snow Light Snow
8:51 PM 23.0 °F 8.7 °F 19.9 °F 88% 29.72 in 1.0 mi NNE 18.4 mph - 0.03 in Snow Light Snow
9:51 PM 21.9 °F 6.5 °F 18.0 °F 85% 29.70 in 1.0 mi NNE 20.7 mph 29.9 mph 0.02 in Snow Light Snow
10:51 PM 19.9 °F 4.8 °F 17.1 °F 89% 29.69 in 1.0 mi NNE 18.4 mph 28.8 mph 0.03 in Snow Light Snow
11:51 PM 19.0 °F 2.7 °F 15.1 °F 85% 29.68 in 1.0 mi NNE 20.7 mph 27.6 mph 0.03 in Snow Light Snow
11:57 PM 19.4 °F 2.5 °F 15.8 °F 86% 29.67 in 0.2 mi NNE 23.0 mph - 0.01 in Snow Light Snow